Погода Звериноголовская

Погода Звериноголовская : погода сейчас, прогноз погоды и архив. Всё, что Вы хотите узнать о погоде Звериноголовская!

Поиск расширенной информации на нашем сайте:

Другие новости

Новости СМИ2

Главная страница сайта

Новости сайта

03.07.2017

Напоминаем, что на нашем специализированном сайте Метеоцентр.Азия вы можете получить высокодетализированные автоматические прогнозы погоды по пунктам России, СНГ и мира в авиационном формате (включающие направление и скорость ветра, видимость, явления погоды, количество и форму облачности, нижнюю и верхнюю границу облачности).


Погода Звериноголовская - сегодня

Время (UTC), дата Ветер
(°,м/с) 
Видим.   Явления Облачность Т
(°С)
Тd
(°С)
f(%) Тe
(°С)
Pmin
(гПа)
dP
(гПа)
Po
(мм)
O2
(г/м3)
Тmin Tmax R s Состояние
почвы
00 15.08.17 080 (В) 20000 м    ясно 
+13.2 +8.8 75 +13  1021.4  0.6  755  289           
06 15.08.17 050 (СВ) 20000 м    6/0 верхняя 
[Cs]
+22.7 +10.1 45 +24  1022.1  0.1  756  280           
09 15.08.17 060 (СВ) 20000 м    8/0 верхняя 
[Cs]
+27.1 +5.5 25 +27  1021.7  -0.3  756  276           
12 15.08.17 070 (В) 20000 м    8/0 верхняя 
[Cs]
+26.5 +5.9 27 +27  1021.2  -0.5  756  277           
18 15.08.17 100 (В) 10 км    5/0 верхняя 
[Cs]
+14.5 +10.2 75 +16  1022.3  0.4  756  288           
21 15.08.17 130 (ЮВ) 10 км    1/0 верхняя 
[Ci fib]
+14.4 +9.4 72 +15  1022.3  756  288           
00 16.08.17 190 (Ю) 20000 м    8/0 средняя 
[Ac As]
+13.1 +8.9 76 +14  1022.5  0.1  756  289           
06 16.08.17 160 (Ю) 20000 м    1/0 верхняя 
[Ci fib]
+24.4 +7.8 35 +24  1022  -0.3  756  278           
09 16.08.17 040 (СВ) 20000 м    1/0 верхняя 
[Ci fib]
+26.6 +6 27 +27  1020.9  -0.9  756  277           
12 16.08.17 310 (СЗ) 20000 м    1/0 верхняя 
[Ci fib]
+27.3 +6.1 26 +27  1020.4  -0.5  755  276           
18 16.08.17 тихо ()   10 км    9/0 средняя 
[Ac As]
+18 +13.4 74 +24  1021.6  0.5  756  283           
21 16.08.17 360 (С) 10 км  в посл. час дождь  6/3 600 м средняя, верхняя 
[Sc|Ac lent|Cs]
+16.7 +14.1 85 +25  1022.3  0.7  756  284           
00 17.08.17 020 (С) 20000 м  {дождь}  6/0 средняя, верхняя 
[Ac trans|Cs]
+14.7 +13.3 91 +21  1023  0.6  757  287           
06 17.08.17 360 (С) 20000 м    3/3 1000 м 
[Cu hum]
+21.8 +9 44 +22  1024  0.3  758  281           
09 17.08.17 010 (С) 20000 м    6/4 1000 м верхняя 
[Cu hum|Ci]
+23.3 +5.6 32 +23  1023.4  -0.5  757  280           
12 17.08.17 360 (С) 20000 м    8/6 1000 м верхняя 
[Cu hum|Cs]
+23.3 +5.4 31 +23  1022.9  -0.5  757  280           
18 17.08.17 310 (СЗ) 10 км    5/0 верхняя 
[Cs]
+12.4 +8.4 77 +14  1024.5  0.6  758  291           
21 17.08.17 350 (С) 10 км    ясно 
+9.7 +7.9 89 +11  1025.1  0.4  758  294           
00 18.08.17 020 (С) 20000 м    ясно 
+9.5 +8.4 93 +10  1025.8  0.7  759  294           
06 18.08.17 010 (С) 20000 м    8/8 600 м 
[Cu med, cong]
+18.9 +7.3 47 +20  1026.9  0.1  760  285           
09 18.08.17 360 (С) 20000 м    9/9 600 м 
[Sc diur, vesp]
+20.4 +6.1 39 +20  1026.3  -0.5  759  284           
12 18.08.17 340 (С) 20000 м    8/8 600 м 
[Cu Sc]
+20.6 +4.8 35 +21    -0.6  759  284           
18 18.08.17 тихо ()   10 км    ясно 
+8.3 +5.3 81 +8  1026.8  0.4  759  296           
21 18.08.17 090 (В) 10 км    ясно 
+4.8 +3.2 89 +6  1027.2  0.2  759  300           
00 19.08.17 тихо ()   20000 м    ясно 
+3.6 +2.3 91 +4  1027.4  0.1  760  302           
Время (UTC), дата Ветер
(°,м/с) 
Видим.   Явления Облачность Т
(°С)
Тd
(°С)
f(%) Тe
(°С)
Pmin
(гПа)
dP
(гПа)
Po
(мм)
O2
(г/м3)
Тmin Tmax R s Состояние
почвы

Для получения пояснительной информации подведите курсор к названию столбца.

ПОГОДА Звериноголовская - архив

Всё, что Вы хотите узнать о погоде Звериноголовская - удобно и подробно!

Выберите нужную дату (начиная с 1 января 2015* года) и нажмите кнопку "Найти".
Будут отображены архивные сводки погоды по пункту Звериноголовская, начиная с указанной даты.


Отображать данные в формате CSV (для использования в таблицах Excel)


Внимание! Наш архив погоды предназначен исключительно для личного некоммерческого использования в познавательных целях. Если Вам необходимы официальные справки о состоянии погоды (для производственных, юридических, коммерческих и т.п. целей), обращайтесь в органы Росгидромета.

*Примечание: данная дата относится к архиву по метеостанциям СССР (Россия, СНГ, Балтия).
Архив по метеостанциям Зарубежной Европы и Азии (кроме Китая) хранится 10 дней, по другим регионам земного шара (Китай, Африка, Америка, Австралия, Океания) - 1 день.

Звериноголовская - район местоположения метеостанции


Название, широта, долгота, высота метеостанции:
Звериноголовская 54.5°ш. 64.9°д. 117 м над ур. моря [Российская Федерация]

Дополнительная информация

В oтличие oт бoльшинства пoгoдных сайтoв мы публикуем пoдрoбную метеoинфoрмацию в детальнoм прoфессиoнальнoм фoрмате.

Характеристики температуры и влажнoсти вoздуха измеряются на высoте 2 м в тени вдали oт зданий и деревьев.
Скoрoсть ветра измеряется на высoте 10 м (на урoвне рoста челoвека скoрoсть ветра ниже в 1.5-2 раза). Если метеoстанция нахoдится в гoрoде или в лесу, тo скoрoсть ветра занижена на 2-4 м/с пo сравнению с oткрытым местoм. Скoрoсть ветра над акватoриями крупных рек и oзёр, а также на вершинах хoлмoв на 2-5 м/с выше, чем в oбычных услoвиях.
Атмoсфернoе давление в разных тoчках местнoсти мoжет значительнo oтличаться oт давления на метеoстанции, в зависимoсти oт услoвий рельефа (при пoдъёме на 10 м давление пoнижается примернo на 1 мм рт.ст.).